Tracking 25195 objects as of 20-Jan-2022
HD Live streaming from Space Station
objects crossing your sky now

MARECS B2

Track MARECS B2 now!
MARECS B2 is classified as:


NORAD ID: 15386
Int'l Code: 1984-114B
Perigee: 36,553.3 km
Apogee: 37,561.0 km
Inclination: 15.4 °
Period: 1,501.1 minutes
Semi major axis: 43428 km
RCS: 3.0552 m2 (large)
Launch date: November 10, 1984
Source: European Space Agency (ESA)
Launch site: FRENCH GUIANA (FRGUI)
aabbcc
Your satellite tracking list
Your tracking list is empty




NASA's NSSDC Master Catalog

Two Line Element Set (TLE):
1 15386U 84114B   22019.45257910 -.00000105  00000-0  00000-0 0  9995
2 15386  15.3771 344.3970 0116010  15.6118 189.8865  0.95928144 97238
Source of the keplerian elements: AFSPC